Location: Rodanthe
(35.5920°N, 75.4670°W)
Time: 10:22:28
(UTC-05:00)

Daily predictions for brighter satellites

Satellite Brightness Start Highest point End
(mag) Time Altitude Azimuth Time Altitude Azimuth Time Altitude Azimuth
SMAP 3.4 17:08:58 10° SE 17:13:23 45° ENE 17:17:50 10° N
Cosmos 1455 Rocket 3.1 17:15:57 10° N 17:20:23 85° E 17:24:50 10° S
NOSS 2-1 (D) 3.5 17:17:31 10° SSW 17:21:13 51° ESE 17:25:09 10° NE
Genesis I 3.3 17:17:39 10° NNW 17:21:31 53° ENE 17:25:19 10° SE
NOSS 2-1 (C) 3.6 17:18:12 10° SSW 17:21:54 50° ESE 17:25:52 10° NE
Delta 2 Rocket 3.0 17:20:57 10° W 17:24:29 84° S 17:28:26 10° E
Cosmos 1833 Rocket 3.4 17:21:03 10° N 17:25:57 30° ENE 17:30:48 10° ESE
IDEFIX/ARIANE 42P 2.5 17:25:11 10° SSE 17:30:21 72° ENE 17:35:31 10° N
Cosmos 2082 Rocket 2.6 17:27:49 10° N 17:33:09 40° ENE 17:38:27 10° SE
Thor Agena Rocket 3.8 17:32:34 10° N 17:37:49 77° WNW 17:43:04 10° SSW
Tiangong 1 2.5 17:37:46 10° WNW 17:40:23 26° NNW 17:42:20 14° NE
NOSS 2-1 (E) 3.2 17:36:43 10° SSW 17:40:32 78° ESE 17:44:42 10° NE
Okean 1-7 Rocket 3.8 17:36:17 10° SSE 17:40:38 48° E 17:44:57 10° NNE
Cosmos 1500 3.1 17:37:40 10° N 17:41:31 78° E 17:45:22 10° S
Cosmos 1743 3.4 17:38:05 10° NNE 17:41:37 33° E 17:45:06 10° SE
SJ-7 4.5 17:38:10 10° SSE 17:42:23 86° E 17:46:39 10° N
ASTRO F (AKARI) 4.1 17:39:45 10° NNE 17:42:54 73° ESE 17:46:04 10° S
Cosmos 375 4.3 17:38:47 10° NNW 17:42:59 88° WSW 17:46:48 10° SSE
Meteor 1-19 Rocket 4.4 17:39:07 10° S 17:44:43 54° E 17:50:25 10° NNE
AQUARIUS 4.5 17:43:53 10° S 17:48:21 71° WSW 17:52:51 10° NNW
Meteor 1-28 Rocket 4.3 17:46:16 16° NE 17:48:21 24° E 17:51:29 10° SSE
Cosmos 1484 Rocket 2.9 17:48:54 10° SSE 17:52:28 45° ENE 17:56:02 10° N
USA 234 4.0 17:53:39 10° NNE 17:59:51 47° NW 18:06:02 10° WSW
Meteor 2-21 4.5 17:54:46 10° N 18:00:58 87° W 18:07:04 10° S
Cosmos 1975 4.1 17:57:28 10° NNW 18:01:19 43° W 18:05:08 10° SSW
CZ-4 R/B 3.5 18:01:13 10° SSW 18:04:55 31° W 18:08:37 10° NW
Meteor 1-13 Rocket 4.4 18:01:25 10° SSW 18:07:05 76° W 18:12:55 10° N
MSX 4.0 18:02:02 10° S 18:07:46 79° WSW 18:13:32 10° NNW
Cosmos 1606 Rocket 4.2 18:04:00 10° NNE 18:08:06 34° E 18:12:10 10° SE
Meteor 1-23 Rocket 4.3 18:03:12 10° S 18:08:43 53° E 18:14:12 10° NNE
Cosmos 2369 Rocket 3.4 18:04:50 10° SSE 18:08:53 20° E 18:08:55 20° E
KM-V1 4.4 18:08:30 10° WSW 18:10:31 25° S 18:10:48 24° SSE
Meteor 2-9 Rocket 4.3 18:06:09 10° N 18:11:18 44° ENE 18:16:21 10° SSE
Cosmos 2239 Rocket 4.4 18:05:24 10° N 18:11:33 65° E 18:17:37 10° SSE
Meteor 2-4 Rocket 3.5 18:07:33 10° S 18:12:53 68° E 18:18:11 10° NNE
CZ-2C R/B 3.9 18:08:23 10° SSW 18:13:04 40° W 18:17:53 10° NNW
Abrixas 2.5 18:12:09 10° NW 18:15:00 54° NNE 18:15:00 54° NNE
COSMO-SKYMED 1 2.6 18:10:56 10° N 18:15:17 79° WNW 18:19:37 10° SSW
NOSS 3-4 (A) 4.0 18:09:28 10° NNW 18:16:14 46° NE 18:23:21 10° SE
NOSS 3-4 (C) 4.1 18:09:35 10° NNW 18:16:20 46° NE 18:23:13 11° SE
Meteor 2-14 Rocket 4.5 18:12:52 10° N 18:19:03 85° W 18:25:10 10° S
Cosmos 2056 Rocket 3.4 18:14:21 10° S 18:19:43 78° ESE 18:23:51 17° NNE
CZ-3B DEB 4.1 18:15:45 10° WNW 18:19:50 24° N 18:25:57 14° NE
Cosmos 407 Rocket 4.1 18:17:51 10° N 18:21:59 32° NE 18:21:59 32° NE
Cosmos 1821 Rocket 3.8 18:17:25 10° N 18:23:32 78° E 18:29:38 10° S
Cosmos 1025 Rocket 3.1 18:19:30 10° S 18:23:52 82° W 18:28:12 11° N
NOAA 12 4.2 18:18:49 10° SSE 18:23:54 51° ENE 18:28:59 10° N
Cosmos 1624 Rocket 4.2 18:27:36 10° SSW 18:32:45 72° WNW 18:36:48 17° N
Cosmos 1605 Rocket 4.0 18:28:09 10° N 18:34:14 51° E 18:40:13 10° SSE
Cosmos 1340 3.4 18:32:22 10° S 18:34:57 39° SSE 18:34:57 39° SSE
METEOR-M 4.0 18:41:37 10° SSE 18:46:55 73° ENE 18:52:15 10° N
Cosmos 1666 3.7 18:52:05 10° NNW 18:55:49 47° W 18:59:32 10° SSW
GEOS 3 Rocket 4.1 19:00:07 43° N 19:00:07 43° N 19:03:45 10° NNW
Delta 2 Rocket 4.4 19:03:09 10° W 19:05:39 40° W 19:05:39 40° W
Cosmos 1727 Rocket 3.9 19:02:06 10° S 19:08:19 87° W 19:10:52 39° N
Cosmos 1452 Rocket 3.5 19:03:28 10° SSW 19:08:13 75° SSW 19:08:13 75° SSW
Cosmos 1833 Rocket 4.3 19:04:50 10° NW 19:09:49 33° WSW 19:14:46 10° SSW
Cosmos 1190 Rocket 4.3 19:08:10 10° NNW 19:13:21 65° WSW 19:15:37 33° S
Cosmos 2082 Rocket 4.4 19:12:29 10° NW 19:16:55 24° W 19:21:23 10° SSW
FALCON 9 R/B 2.8 19:05:07 10° W 19:23:49 84° S 19:24:35 73° ESE
Cosmos 2369 Rocket 3.5 19:47:03 10° SW 19:50:46 36° WSW 19:50:46 36° WSW
ATLAS 3B CENTAUR R/B 4.2 20:12:52 10° W 20:23:21 34° SW 20:23:21 34° SW
